www.pogodaiklimat.ru

Погода и климат >> Архив погоды >> Россия >> Новгородская область >> Валдай


ПОГОДА в Валдае

  • Прогноз погоды в Валдае
  • Монитор погоды в Валдае

АРХИВ ПОГОДЫ в Валдае

Время (UTC), дата Ветер
(напр.,м/с)
 
Видим.   Явления Облачность Т
(С)
Тd
(С)
f
(%)
Тe
(С)
Тes
(С)
Комфортность P
(гПа)
Po
(гПа)
Тmin
(С)
Tmax
(С)
R
(мм)
R24
(мм)
S
(см)
18 9.02 ЮЗ 4 20 км 10/8 600 м
[Sc Ac As]
-0.4 -1.9 90 -6 -6 1013.1 987.9 +3.0
21 9.02 ЮЗ 3 20 км 10/10 300 м
[St]
-0.8 -2.6 88 -6 -6 1012.2 987.0
00 10.02 ЮЗ 3 20 км 10/10 600 м
[Sc]
-0.7 -3.1 84 -5 -5 1010.9 985.8
03 10.02 ЮЗ 4 20 км 10/10 300 м
[St]
-1.0 -3.8 81 -7 -7 1009.9 984.8 -1.0
06 10.02 ЮЗ 4
{10}
6000 м снег 10/10 300 м
[Frnb Ns]
-1.8 -4.3 83 -8 -8 1009.4 984.2 -1.9 0.3 39
09 10.02 ЮЗ 3 9000 м слаб. снег 10/10 300 м
[Frnb Ns]
-2.1 -4.6 83 -7 -7 1009.4 984.2
12 10.02 ЮЗ 3 20 км {снег} 10/10 600 м
[Sc]
-1.8 -4.6 81 -7 -7 1008.8 983.6
15 10.02 ЮЗ 3 20 км 10/10 300 м
[St]
-2.3 -4.4 85 -7 -7 1008.8 983.6 0.3
18 10.02 ЮЗ 3 20 км в посл. час снег 10/10 300 м
[St]
-2.3 -4.0 88 -7 -7 1008.5 983.3 -1.7 0.0
21 10.02 ЮЗ 4 20 км позёмок 10/10 300 м
[St]
-1.9 -3.4 89 -8 -8 1008.6 983.4
00 11.02 ЮЗ 2 20 км {метель} 10/10 300 м
[St]
-1.8 -2.6 94 -6 -6 1009.0 983.8
03 11.02 Ю 2 4000 м дымка 10/10 300 м
[St]
-1.5 -2.2 95 -6 -6 1008.6 983.4 -2.5 0.0
06 11.02 Ю 2 8000 м дымка 9/6 600 м
[Sc As trans Cs]
-2.1 -3.3 91 -6 -6 1007.4 982.2 -2.3 39
09 11.02 Ю 5-10
{12}
20 км позёмок 9/9 600 м
[Sc Ac As]
-0.1 -2.4 84 -6 -6 1006.4 981.4
12 11.02 Ю 4
{11}
10 км слаб. снег {метель} 9/8 600 м
[Sc Ac As]
+1.2 -1.9 80 -4 -4 1005.6 980.8
15 11.02 Ю 4 20 км в посл. час снег 10/8 600 м
[Sc Ac As]
+0.8 -1.6 84 -4 -4 1005.1 980.2 0.5
18 11.02 Ю 5
{10}
20 км в посл. час снег 9/9 600 м
[Sc]
+0.5 -2.1 83 -5 -5 1004.1 979.2 +1.3 0.5
21 11.02 Ю 4
{11}
2000 м снег {метель} 10/10 300 м
[Frnb Ns]
-0.5 -1.9 90 -6 -6 1003.5 978.6
00 12.02 Ю 4
{10}
4000 м слаб. снег {метель} 10/8 300 м
[Frnb As op]
-0.3 -2.5 85 -6 -6 1002.4 977.5
03 12.02 Ю 4 4000 м слаб. снег {метель} 10/9 300 м
[Frnb As op]
-0.2 -1.4 92 -6 -6 1002.1 977.2 -0.8 1
06 12.02 Ю 4 8000 м слаб. снег {метель} 10/10 300 м
[Frnb Ns]
+0.3 -1.1 90 -5 -5 1001.8 977.0 -0.8 2 38
09 12.02 ЮЗ 3 9000 м слаб. снег 10/10 300 м
[Frnb Ns]
+0.7 -0.7 90 -4 -4 1002.4 977.6
12 12.02 ЮЗ 3 20 км {снег} 10/10 600 м
[Sc]
+1.4 -0.7 86 -3 -3 1002.6 977.9
15 12.02 ЮЗ 3 4000 м слаб. снег 10/10 300 м
[Frnb Ns]
+1.1 -0.6 88 -3 -3 1003.7 978.9 0.8
18 12.02 ЮЗ 3 4000 м слаб. снег 10/9 300 м
[Frnb As op]
+0.5 -0.6 92 -4 -4 1005.1 980.2 +1.4 0.7
21 12.02 З 2 4000 м слаб. снег 10/9 300 м
[Frnb As op]
-0.3 -1.1 94 -4 -4 1007.2 982.2
00 13.02 СЗ 2 4000 м слаб. снег {метель} 10/4 300 м
[Frnb As op]
-2.3 -3.4 92 -6 -6 1009.9 984.6
03 13.02 З 2 20 км {снег, метель} 10/10 300 м
[St]
-3.5 -5.3 87 -8 -8 1011.0 985.6 -3.6 2
06 13.02 С 2 20 км {снег, метель} 10/10 300 м
[St]
-4.6 -6.6 86 -9 -9 1011.4 985.9 -4.7 2 37
09 13.02 СЗ 2 20 км 9/9 600 м
[Sc Ac und]
-4.2 -7.6 77 -8 -8 1011.5 986.0
12 13.02 СЗ 3 20 км 9/9 600 м
[Sc Ac trans]
-4.0 -8.0 74 -9 -9 1011.9 986.4
15 13.02 штиль 0 20 км 6/6 600 м
[Sc]
-6.6 -9.0 83 -7 -7 1013.3 987.5
18 13.02 штиль 0 20 км ясно -11.9 -13.2 90 -12 -12 1015.2 988.9 -3.7
21 13.02 штиль 0 20 км 8/0
[Ac trans]
-11.8 -13.1 90 -12 -12 1016.6 990.2
00 14.02 З 1 20 км 8/0
[Ac trans Cs]
-9.8 -10.7 93 -12 -12 1017.7 991.5
03 14.02 З 2 20 км 10/10 300 м
[St]
-5.4 -6.9 89 -10 -10 1017.8 992.0 -12.8
06 14.02 З 1 20 км 10/10 300 м
[St]
-4.5 -5.9 90 -7 -7 1018.8 993.1 -12.8 37
09 14.02 З 2 10 км в посл. час ливневой снег 9/8 300 м
[Cb cap Ac trans Ci sp]
-2.0 -3.9 87 -6 -6 1020.0 994.5
12 14.02 З 2 6000 м ливневой снег 10/10 300 м
[Cb cap]
-1.0 -2.6 89 -5 -5 1020.8 995.4
15 14.02 З 2 5000 м снег {ливн. осадки} 10/10 300 м
[Frnb Ns]
-0.9 -1.6 95 -5 -5 1021.4 996.0 0.3
18 14.02 З 3 4000 м слаб. снег 10/8 300 м
[Frnb As op]
-0.4 -1.3 94 -5 -5 1021.1 995.7 -0.3 0.6
21 14.02 З 4 4000 м слаб. снег 10/9 600 м
[Sc As op]
-0.6 -1.5 94 -6 -6 1018.8 993.5
00 15.02 З 4 10 км слаб. снег 9/5 600 м
[Sc As trans]
-0.2 -1.7 90 -6 -6 1015.7 990.5
03 15.02 З 3-10
{11}
10 км слаб. морось 10/10 300 м
[St]
+0.6 -0.3 94 -4 -4 1013.6 988.5 -0.9 0.6
06 15.02 З 3
{10}
6000 м морось 10/10 300 м
[St]
+1.0 +0.4 96 -4 -4 1012.8 987.8 -0.7 0.6 37
09 15.02 СЗ 3 20 км {морось} 9/9 300 м
[Cb cap]
+2.3 +0.5 88 -2 -2 1013.3 988.4
12 15.02 СЗ 3
{11}
20 км {морось} 9/8 600 м
[Cb cap Ci fib]
+3.3 -0.2 78 -1 -0 1012.3 987.5
15 15.02 СЗ 3
{11}
20 км 4/1 600 м
[Sc Ci fib]
+3.1 -1.3 73 -1 -1 1012.4 987.6 0.6
18 15.02 СЗ 3 20 км 6/0
[Ci fib]
+2.3 -1.7 75 -2 -2 1012.5 987.6 +3.7 0.3
21 15.02 СЗ 2 20 км 9/0
[As trans Cs]
+1.9 -0.6 83 -1 -1 1013.7 988.7
00 16.02 З 1 20 км 9/0
[Ac As Cs]
+0.8 -0.4 92 -1 -1 1014.8 989.7
03 16.02 С 2 20 км 9/9 600 м
[Sc Ac und]
+0.7 -0.2 94 -3 -3 1015.4 990.3 +0.6
06 16.02 З 2 7000 м дымка 10/10 300 м
[St]
+0.6 +0.2 97 -3 -3 1015.6 990.5 +0.3 34
09 16.02 З 3 8000 м слаб. морось 10/10 300 м
[St]
+0.8 +0.1 95 -4 -4 1014.7 989.6
12 16.02 З 3 20 км в посл. час морось 10/10 300 м
[St]
+1.7 +0.6 92 -3 -3 1011.4 986.5

 

Местоположение метеостанции Валдай (Новгородская область, Россия): широта 57.99 долгота 33.25 высота над уровнем моря 195 м.

В архиве по умолчанию представлена погода в Валдае за последнюю неделю. Архивные данные за месяц целиком и за предыдущие месяцы, начиная с января 2011 года, Вы можете получить, выбрав интересующий диапазон дат из раскрывающегося списка и нажав кнопку "Ввод!".


*Определитесь, кто Вы:
робот инопланетянин человек

Внимание! Время в таблицах - всемирное. Для получения местного времени необходимо прибавить поправку, которая равна 3 ч.

Смотрите также архив погоды в соседних городах и на ближайших метеорологических станциях:

Погода в Окуловке (Новгородская область, Россия) (42 км)
Погода в Бологом (Тверская область, Россия) (48 км)
Погода в Крестцах (Новгородская область, Россия) (53 км)
Погода в Демянске (Новгородская область, Россия) (60 км)
Погода в Боровичах (Новгородская область, Россия) (61 км)
Погода в Вышнем Волочке (Тверская область, Россия) (93 км)
Погода в Осташкове (Тверская область, Россия) (98 км)
Погода в Удомле (Тверская область, Россия) (105 км)
Погода в Охонах (Новгородская область, Россия) (110 км)
Погода в Старой Руссе (Новгородская область, Россия) (114 км)

Пояснения к столбцам:

Ветер - указаны скорость ветра в м/с - средняя за 10 мин, порывы в срок и между сроками (в фигурных скобках) и направление, откуда дует ветер: С - северный, СВ - северо-восточный, В - восточный, ЮВ - юго-восточный, Ю - южный, ЮЗ - юго-западный, З - западный, СЗ - северо-западный.
Видимость - горизонтальная дальность видимости в метрах или километрах. При видимости от 1 до 10 км при отсутствии осадков обычно наблюдается дымка, при ухудшении видимости до 1 км и менее - туман. В сухую погоду видимость может ухудшаться дымом, пылью или мглою.
Явления - указаны атмосферные явления, наблюдавшиеся в срок или в последний час перед сроком; фигурными скобками обозначены явления, наблюдавшиеся между сроками (за 1-3 часа до срока); квадратными скобками обозначены град или гололедные отложения с указанием их диаметра в мм.
Облачность - указаны через наклонную черту общая и нижняя облачность в баллах и высота нижней границы облаков в метрах; квадратными скобками обозначены формы облаков: Ci - перистые, Cs - перисто-слоистые, Cc - перисто-кучевые, Ac - высококучевые, As - высокослоистые, Sc - слоисто-кучевые, Ns - слоисто-дождевые, Cu - кучевые, Cb - кучево-дождевые. Подробнее классификацию облаков см. в Атласе облаков (PDF).
T - Температура воздуха - температура, измеренная на высоте 2 м над землей.
Td - Температура точки росы - температура, при понижении до которой содержащийся в воздухе водяной пар достигнет насыщения.
f - Относительная влажность воздуха - влажноcть воздуха, измеренная на высоте 2 м над землей.
Te - Эффективная температура - температура, которую ощущает одетый по сезону человек в тени. Характеристика душности погоды. При расчете учитывается влияние влажности воздуха и скорости ветра на теплоощущения человека.
Tes - Эффективная температура на солнце - температура, которую ощущает человек, с поправкой на солнечный нагрев. Характеристика знойности погоды. Зависит от высоты солнца над горизонтом, облачности и скорости ветра. Ночью, в пасмурную погоду, а также при ветре 12 м/с и более поправка равна нулю.
P - Атмосферное давление - приведенное к уровню моря атмосферное давление.
Po - Атмосферное давление - измеренное на уровне метеостанции атмосферное давление.
Tmin - Минимальная температура - минимум температуры воздуха на высоте 2 м над землей.
Tmax - Максимальная температура - максимум температуры воздуха на высоте 2 м над землей.
R - Количество осадков - Количество выпавших осадков за период времени, мм. При наведении курсора мыши на число - период времени, за который выпало указанное количество осадков.
R24 - Количество осадков - Количество выпавших осадков за 24 часа, мм.
S - Снежный покров - Высота снежного покрова, см. При наведении курсора мыши на число - состояние снежного покрова и степень покрытия местности в баллах.